TimeCDT,TemperatureF,Dew PointF,Humidity,Sea Level PressureIn,VisibilityMPH,Wind Direction,Wind SpeedMPH,Gust SpeedMPH,PrecipitationIn,Events,Conditions,WindDirDegrees,DateUTC
12:52 AM,42.1,37.0,82,30.12,10.0,Calm,Calm,-,N/A,,Clear,0,2013-10-23 05:52:00
1:52 AM,39.9,36.0,86,30.13,10.0,Calm,Calm,-,N/A,,Clear,0,2013-10-23 06:52:00
2:52 AM,36.0,34.0,93,30.14,10.0,Calm,Calm,-,N/A,,Clear,0,2013-10-23 07:52:00
3:52 AM,39.0,34.0,82,30.12,10.0,NNE,4.6,-,N/A,,Clear,20,2013-10-23 08:52:00
4:52 AM,37.9,35.1,89,30.14,10.0,Calm,Calm,-,N/A,,Clear,0,2013-10-23 09:52:00
5:52 AM,34.0,32.0,92,30.17,10.0,Calm,Calm,-,N/A,,Clear,0,2013-10-23 10:52:00
6:52 AM,36.0,33.1,89,30.19,10.0,Calm,Calm,-,N/A,,Mostly Cloudy,0,2013-10-23 11:52:00
7:52 AM,37.9,36.0,93,30.20,10.0,Calm,Calm,-,N/A,,Partly Cloudy,0,2013-10-23 12:52:00
8:52 AM,39.9,37.0,89,30.21,10.0,Calm,Calm,-,N/A,,Clear,0,2013-10-23 13:52:00
9:52 AM,46.0,37.9,73,30.21,10.0,Variable,3.5,-,N/A,,Clear,0,2013-10-23 14:52:00
10:52 AM,48.9,35.1,59,30.20,10.0,North,3.5,-,N/A,,Clear,10,2013-10-23 15:52:00
11:52 AM,51.1,35.1,54,30.19,10.0,South,4.6,-,N/A,,Clear,170,2013-10-23 16:52:00
1:52 PM,57.0,36.0,45,30.10,10.0,South,6.9,-,N/A,,Clear,180,2013-10-23 18:52:00
2:52 PM,59.0,36.0,42,30.08,10.0,South,8.1,-,N/A,,Clear,190,2013-10-23 19:52:00
3:52 PM,61.0,37.0,41,30.05,10.0,South,6.9,-,N/A,,Clear,170,2013-10-23 20:52:00
4:52 PM,61.0,37.9,42,30.03,10.0,South,6.9,-,N/A,,Clear,180,2013-10-23 21:52:00
5:52 PM,60.1,37.9,44,30.06,10.0,WSW,4.6,-,N/A,,Clear,240,2013-10-23 22:52:00
6:52 PM,50.0,43.0,77,30.07,10.0,Calm,Calm,-,N/A,,Clear,0,2013-10-23 23:52:00
7:52 PM,46.9,43.0,86,30.09,10.0,East,3.5,-,N/A,,Clear,80,2013-10-24 00:52:00
8:52 PM,46.0,43.0,89,30.09,10.0,Calm,Calm,-,N/A,,Clear,0,2013-10-24 01:52:00
9:52 PM,48.0,44.1,86,30.09,10.0,Calm,Calm,-,N/A,,Clear,0,2013-10-24 02:52:00
10:52 PM,50.0,42.1,74,30.10,10.0,Calm,Calm,-,N/A,,Clear,0,2013-10-24 03:52:00
11:52 PM,48.9,42.1,77,30.12,10.0,Calm,Calm,-,N/A,,Clear,0,2013-10-24 04:52:00